CST,Max TemperatureF,Mean TemperatureF,Min TemperatureF,Max Dew PointF,MeanDew PointF,Min DewpointF,Max Humidity, Mean Humidity, Min Humidity, Max Sea Level PressureIn, Mean Sea Level PressureIn, Min Sea Level PressureIn, Max VisibilityMiles, Mean VisibilityMiles, Min VisibilityMiles, Max Wind SpeedMPH, Mean Wind SpeedMPH, Max Gust SpeedMPH,PrecipitationIn, CloudCover, Events, WindDirDegrees
2012-11-1,82,63,44,55,50,43,100,70,28,30.07,30.01,29.95,10,9,1,6,0,,0.00,0,,212
2012-11-2,82,68,53,61,55,52,100,73,35,30.05,29.99,29.96,10,9,1,10,2,,0.00,0,,208
2012-11-3,82,71,60,64,60,55,100,79,42,30.12,30.05,30.00,10,8,0,13,4,24,0.00,3,Fog-Rain,210
2012-11-4,71,61,51,57,54,50,100,79,53,30.13,30.09,30.04,10,9,2,9,3,,0.00,2,,82
2012-11-5,77,64,50,55,47,34,100,65,28,30.08,30.03,29.97,10,9,0,13,2,32,0.00,1,Fog,326
2012-11-6,68,54,41,43,38,34,93,62,28,30.16,30.09,30.05,10,10,10,9,3,,0.00,0,,334
2012-11-7,69,53,37,43,37,30,93,64,23,30.19,30.13,30.10,10,10,10,9,1,,0.00,0,,4
2012-11-8,73,56,39,52,41,37,93,60,31,30.22,30.13,30.07,10,9,2,13,4,18,0.00,0,,155
2012-11-9,78,66,55,55,52,50,88,65,36,30.14,30.08,30.02,10,10,4,16,7,24,0.00,2,,171
2012-11-10,78,66,55,61,56,54,100,64,42,30.11,30.01,29.95,10,10,4,16,9,26,0.00,2,,166
2012-11-11,77,64,51,64,59,50,94,79,61,30.22,29.98,29.87,10,10,2,17,11,26,0.71,7,Rain-Thunderstorm,169
2012-11-12,55,44,33,50,33,25,94,68,31,30.48,30.41,30.21,10,10,7,12,5,17,0.01,1,,12
2012-11-13,55,44,32,36,30,21,100,68,26,30.53,30.44,30.36,10,9,0,13,2,20,0.00,1,Fog,62
2012-11-14,59,46,33,36,31,23,100,62,25,30.44,30.37,30.31,10,10,10,8,1,,0.00,1,,20
2012-11-15,60,45,30,36,31,27,100,68,29,30.36,30.31,30.26,10,10,2,7,1,,0.00,0,,66
2012-11-16,60,46,32,34,29,19,100,67,20,30.42,30.36,30.32,10,10,3,12,2,16,0.00,0,,36
2012-11-17,68,50,32,36,32,27,100,68,21,30.42,30.35,30.31,10,10,2,7,1,,0.00,0,,97
2012-11-18,69,51,33,41,35,30,93,63,23,30.35,30.29,30.23,10,10,7,8,1,,0.00,0,,143
2012-11-19,71,58,44,45,40,34,87,61,27,30.29,30.23,30.16,10,9,2,8,1,,0.00,2,,187
2012-11-20,77,62,48,54,50,43,94,69,41,30.22,30.18,30.12,10,8,0,5,0,,0.00,2,,292
2012-11-21,77,60,44,54,45,37,100,68,24,30.29,30.22,30.18,10,8,0,6,0,,0.00,0,Fog,75
2012-11-22,73,57,41,52,47,39,93,66,36,30.20,30.14,30.09,10,10,10,13,2,17,0.00,0,,191
2012-11-23,66,56,44,55,43,21,94,62,30,30.39,30.28,30.15,10,10,5,16,4,24,0.00,5,Rain,1
2012-11-24,59,46,32,32,26,21,87,56,23,30.43,30.31,30.16,10,10,10,8,2,,0.00,0,,30
2012-11-25,69,50,32,52,38,30,93,64,30,30.15,30.03,29.95,10,10,10,12,3,20,0.00,0,,180
2012-11-26,80,68,55,61,57,46,100,73,42,30.11,29.98,29.90,10,9,3,13,6,21,0.00,5,Thunderstorm,206
2012-11-27,59,48,35,45,39,34,93,66,39,30.38,30.29,30.13,10,10,0,14,8,18,0.07,4,Rain-Thunderstorm,14
2012-11-28,62,47,32,37,32,27,100,69,26,30.49,30.38,30.32,10,10,1,8,1,,0.00,0,,122
2012-11-29,68,50,32,43,38,32,100,61,33,30.33,30.23,30.17,10,10,1,12,3,,0.00,0,,161
2012-11-30,69,56,44,59,52,39,100,81,64,30.22,30.16,30.10,10,9,0,10,4,,0.00,5,Fog-Rain,158